TimeAKST,TemperatureF,Dew PointF,Humidity,Sea Level PressureIn,VisibilityMPH,Wind Direction,Wind SpeedMPH,Gust SpeedMPH,PrecipitationIn,Events,Conditions,WindDirDegrees,DateUTC
12:53 AM,7.0,3.9,87,29.76,10.0,Calm,Calm,-,N/A,,Clear,0,2012-11-24 09:53:00
1:53 AM,9.0,5.0,84,29.76,10.0,Calm,Calm,-,N/A,,Clear,0,2012-11-24 10:53:00
2:53 AM,7.0,3.9,87,29.77,10.0,Calm,Calm,-,N/A,,Clear,0,2012-11-24 11:53:00
3:53 AM,8.1,5.0,87,29.77,10.0,Calm,Calm,-,N/A,,Clear,0,2012-11-24 12:53:00
4:53 AM,8.1,5.0,87,29.78,10.0,Calm,Calm,-,N/A,,Clear,0,2012-11-24 13:53:00
5:53 AM,8.1,3.9,83,29.78,10.0,Calm,Calm,-,N/A,,Clear,0,2012-11-24 14:53:00
6:53 AM,10.0,7.0,87,29.79,10.0,Calm,Calm,-,N/A,,Clear,0,2012-11-24 15:53:00
7:53 AM,8.1,3.9,83,29.79,10.0,Calm,Calm,-,N/A,,Clear,0,2012-11-24 16:53:00
8:53 AM,3.9,-0.0,84,29.81,10.0,Calm,Calm,-,N/A,,Clear,0,2012-11-24 17:53:00
9:53 AM,9.0,5.0,84,29.83,10.0,Calm,Calm,-,N/A,,Clear,0,2012-11-24 18:53:00
10:53 AM,10.0,6.1,84,29.83,10.0,Calm,Calm,-,N/A,,Clear,0,2012-11-24 19:53:00
11:53 AM,10.0,6.1,84,29.85,10.0,Calm,Calm,-,N/A,,Partly Cloudy,0,2012-11-24 20:53:00
12:53 PM,14.0,9.0,80,29.86,10.0,Calm,Calm,-,N/A,,Partly Cloudy,0,2012-11-24 21:53:00
1:53 PM,12.9,9.0,84,29.88,10.0,Calm,Calm,-,N/A,,Partly Cloudy,0,2012-11-24 22:53:00
2:53 PM,10.9,6.1,81,29.88,10.0,Calm,Calm,-,N/A,,Partly Cloudy,0,2012-11-24 23:53:00
3:53 PM,10.9,6.1,81,29.89,10.0,Calm,Calm,-,N/A,,Clear,0,2012-11-25 00:53:00
4:53 PM,9.0,6.1,88,29.90,10.0,Calm,Calm,-,N/A,,Clear,0,2012-11-25 01:53:00
5:53 PM,8.1,5.0,87,29.92,10.0,Calm,Calm,-,N/A,,Clear,0,2012-11-25 02:53:00
6:53 PM,5.0,1.9,87,29.93,10.0,Calm,Calm,-,N/A,,Clear,0,2012-11-25 03:53:00
7:53 PM,3.9,-0.0,84,29.94,10.0,Calm,Calm,-,N/A,,Clear,0,2012-11-25 04:53:00
8:53 PM,8.1,5.0,87,29.96,10.0,Calm,Calm,-,N/A,,Clear,0,2012-11-25 05:53:00
9:53 PM,8.1,5.0,87,29.98,10.0,Calm,Calm,-,N/A,,Clear,0,2012-11-25 06:53:00
10:53 PM,5.0,1.0,84,30.00,10.0,Calm,Calm,-,N/A,,Clear,0,2012-11-25 07:53:00
11:53 PM,5.0,1.0,84,30.01,9.0,Calm,Calm,-,N/A,,Clear,0,2012-11-25 08:53:00